Station LJAC1 - 9410230 - La Jolla, CA Image indicating link to RSS feed of recent meteorological observations for station LJAC1


Conditions at LJAC1 as of
(12:48 pm PDT)
1948 GMT on 04/23/2024:
     

Click on the graph icon in the table below to see a time series plot of the last five days of that observation.

5-day plot - Wind Direction Wind Direction (WDIR):WNW ( 290 deg true )
5-day plot - Wind Speed Wind Speed (WSPD): 8.9 kts
5-day plot - Wind Gust Wind Gust (GST): 11.1 kts
5-day plot - Atmospheric Pressure Atmospheric Pressure (PRES):30.03 in
5-day plot - Water Temperature Water Temperature (WTMP): 60.3 °F
5-day plot - Wind Speed at 10 Meters Wind Speed at 10 meters (WSPD10M): 9.7 kts
5-day plot - Wind Speed at 20 Meters Wind Speed at 20 meters (WSPD20M): 9.7 kts
5-day plot -  Wind Speed, Wind Gust and Atmospheric Pressure Combined plot of Wind Speed, Gust, and Air Pressure
NOS Water Level Observation Network Water Level
Previous observations
TIME
(PDT)
5-day plot - Wind Direction
WDIR
 
5-day plot - Wind Speed
WSPD
kts
5-day plot - Wind Gust
GST
kts
5-day plot - Wave Height
WVHT
ft
5-day plot - Dominant Wave Period
DPD
sec
5-day plot - Average Wave Period
APD
sec
5-day plot - Mean Wave Direction
MWD
 
5-day plot - Atmospheric Pressure
PRES
in
5-day plot - Pressure Tendency
PTDY
in
5-day plot - Air Temperature
ATMP
°F
5-day plot - Water Temperature
WTMP
°F
5-day plot - Dew Point
DEWP
°F
5-day plot - Salinity
SAL
psu
5-day plot - Visibility
VIS
nmi
5-day plot - Tide (above MLLW)
TIDE
ft
2024-04-23 12:42 pmWNW 8.9 9.9----30.03- 60.6 60.1----
2024-04-23 12:36 pmWNW 8.0 9.9----30.03- 61.2 59.0----
2024-04-23 12:30 pmWNW 8.0 9.9----30.03- 60.6 57.7----
2024-04-23 12:24 pm W 8.0 8.9----30.04- 60.4 58.1----
2024-04-23 12:18 pm W 7.0 8.0----30.03- 60.4 57.6----
2024-04-23 12:12 pm W 7.0 8.9----30.03- 60.4 57.2----
2024-04-23 12:06 pm W 6.0 8.0----30.03- 60.1 57.6----
2024-04-23 12:00 pmWSW 6.0 7.0----30.03+0.02 59.9 57.9----
2024-04-23 11:54 amWSW 6.0 7.0----30.03- 59.7 57.4----
2024-04-23 11:48 amWSW 6.0 7.0----30.03-- 57.6----
2024-04-23 11:42 amWSW 7.0 8.9----30.03- 59.7 57.9----
2024-04-23 11:36 am SW 7.0 8.9----30.03- 59.5 58.3----
2024-04-23 11:30 amWSW 7.0 8.9----30.03- 59.5 57.7----
2024-04-23 11:24 amWSW 8.9 9.9----30.03- 59.4 58.1----
2024-04-23 11:18 amWSW 8.0 8.9----30.03-- 58.6----
2024-04-23 11:12 amWSW 7.0 8.0----30.03- 60.1 59.0----
2024-04-23 11:06 amWSW 7.0 8.0----30.03- 59.7 60.8----
2024-04-23 11:00 amWSW 7.0 8.9----30.03+0.03 60.1 61.2----
2024-04-23 10:54 amWSW 7.0 8.0----30.03- 60.3 61.2----
2024-04-23 10:48 am W 5.1 6.0----30.03- 59.9 61.3----
2024-04-23 10:42 amWNW 4.1 6.0----30.03- 60.3 61.3----
2024-04-23 10:36 am W 5.1 6.0----30.03- 59.9 61.3----
2024-04-23 10:30 amWNW 5.1 7.0----30.02- 59.4 61.3----
2024-04-23 10:24 am W 6.0 7.0----30.02- 59.2 61.3----
2024-04-23 10:18 am W 7.0 8.9----30.02-------
2024-04-23 10:12 amWSW 8.0 8.9----30.02- 58.6 61.2----
2024-04-23 10:06 am W 8.0 8.9----30.02- 58.6 61.2----
2024-04-23 10:00 amWSW 7.0 8.0----30.01+0.03 59.0 61.2----
2024-04-23 09:54 amWSW 7.0 8.0----30.01- 58.8 61.2----
2024-04-23 09:48 amWSW 8.0 8.0----30.01-- 61.2----
2024-04-23 09:42 amWSW 8.0 9.9----30.01- 58.8 61.2----
2024-04-23 09:36 amWSW 8.0 9.9----30.01- 59.0 61.2----
2024-04-23 09:30 amWSW 8.9 9.9----30.02- 59.4 61.2----
2024-04-23 09:24 amWSW 7.0 8.9----30.01- 59.5 61.2----
2024-04-23 09:18 amWSW 7.0 8.0----30.01-- 61.2----
2024-04-23 09:12 amWSW 6.0 7.0----30.01- 59.7 61.2----
2024-04-23 09:06 amWSW 6.0 7.0----30.01- 59.7 61.2----
2024-04-23 09:00 amWSW 6.0 8.0----30.01+0.05 60.1 61.0----
2024-04-23 08:54 amWSW 6.0 7.0----30.01- 59.9 61.0----
2024-04-23 08:48 amWSW 4.1 5.1----30.01- 60.4 61.0----
2024-04-23 08:42 amWSW 2.9 2.9----30.01- 60.4 61.0----
2024-04-23 08:36 am W 2.9 2.9----30.01- 60.6 61.0----
2024-04-23 08:30 amSSW 2.9 4.1----30.01- 60.4 61.0----
2024-04-23 08:24 am SW 2.9 4.1----30.00- 60.3 61.0----
2024-04-23 08:18 amSSW 1.9 4.1----30.00- 60.1 61.0----
2024-04-23 08:12 am S 1.9 4.1----30.00- 59.9 61.0----
2024-04-23 08:06 amSSE 2.9 2.9----30.00- 59.5 61.0----
2024-04-23 08:00 am S 1.9 2.9----30.00+0.05 59.5 61.0----
2024-04-23 07:54 amSSE 1.9 2.9----30.00- 59.7 61.0----
2024-04-23 07:48 am S 1.9 2.9----29.99- 59.4 61.0----
2024-04-23 07:42 am- 0.0 1.9----29.99- 59.5 61.0----
2024-04-23 07:36 amESE 1.9 2.9----29.99- 59.2 61.0----
2024-04-23 07:30 amESE 1.9 1.9----29.99- 59.0 61.0----
2024-04-23 07:24 amESE 1.0 1.9----29.99- 59.0 61.0----
2024-04-23 07:18 amESE 1.0 1.9----29.99- 58.8 61.0----
2024-04-23 07:12 amESE 1.0 1.9----29.98- 58.8 61.0----
2024-04-23 07:06 am- 0.0 1.9----29.98- 58.6 60.8----
2024-04-23 07:00 am- 0.0 1.0----29.98+0.03 58.6 60.8----
2024-04-23 06:54 am S 1.9 2.9----29.98- 58.6 60.8----
2024-04-23 06:48 am S 1.9 2.9----29.98-- 60.8----
2024-04-23 06:42 amSSE 1.9 4.1----29.97- 58.5 60.8----
2024-04-23 06:36 amSSE 1.9 2.9----29.97- 58.5 60.8----
2024-04-23 06:30 am SE 1.9 2.9----29.97- 58.5 60.8----
2024-04-23 06:24 am SE 2.9 4.1----29.97- 58.5 60.8----
2024-04-23 06:18 am SE 2.9 4.1----29.96-- 60.8----
2024-04-23 06:12 am SE 1.9 2.9----29.96- 58.3 61.0----
2024-04-23 06:06 amSSE 1.9 2.9----29.96- 58.3 61.0----
2024-04-23 06:00 amSSE 1.0 1.9----29.96+0.01 58.5 61.0----
2024-04-23 05:54 amESE 1.9 2.9----29.96- 58.3 60.8----
2024-04-23 05:48 am E 1.9 4.1----29.96-------
2024-04-23 05:42 am E 1.9 2.9----29.96- 58.3 60.8----
2024-04-23 05:36 am- 0.0 1.9----29.96- 58.3 60.8----
2024-04-23 05:30 amESE 1.9 2.9----29.96- 58.3 60.8----
2024-04-23 05:24 am E 1.9 4.1----29.96- 58.1 60.8----
2024-04-23 05:18 am E 1.9 2.9----29.96-- 60.8----
2024-04-23 05:12 am S 2.9 5.1----29.95- 58.6 60.8----
2024-04-23 05:06 am S 4.1 5.1----29.95- 58.6 60.8----
2024-04-23 05:00 amSSE 1.9 2.9----29.95+0.00 58.3 60.8----
2024-04-23 04:54 am SE 1.9 2.9----29.95- 58.1 60.8----
2024-04-23 04:48 amESE 2.9 4.1----29.95- 58.1 60.8----
2024-04-23 04:42 am SE 1.0 2.9----29.95- 58.1 60.8----
2024-04-23 04:36 am E 1.9 2.9----29.95- 58.1 60.6----
2024-04-23 04:30 am- 0.0 4.1----29.95- 58.1 60.8----
2024-04-23 04:24 amSSW 2.9 4.1----29.95- 58.3 60.8----
2024-04-23 04:18 amSSW 1.9 4.1----29.95- 58.1 60.8----
2024-04-23 04:12 amSSW 4.1 4.1----29.95- 57.9 60.8----
2024-04-23 04:06 amSSW 2.9 4.1----29.95- 57.7 60.8----
2024-04-23 04:00 am S 4.1 4.1----29.95+0.00 57.6 60.8----
2024-04-23 03:54 am S 4.1 6.0----29.95- 57.6 60.8----
2024-04-23 03:48 amSSW 5.1 6.0----29.95- 57.7 60.8----
2024-04-23 03:42 am S 6.0 6.0----29.95- 57.7 60.6----
2024-04-23 03:36 am S 5.1 6.0----29.95- 57.7 60.8----
2024-04-23 03:30 am S 6.0 7.0----29.95- 57.7 60.8----
2024-04-23 03:24 am S 7.0 8.9----29.95- 57.7 60.6----
2024-04-23 03:18 am S 8.9 11.1----29.95- 57.7 60.6----
2024-04-23 03:12 amSSW 9.9 11.1----29.95- 57.7 60.6----
2024-04-23 03:06 amSSW 8.0 11.1----29.95- 57.7 60.6----
2024-04-23 03:00 amSSW 8.9 9.9----29.95-0.01 57.7 60.8----
2024-04-23 02:54 amSSW 8.0 9.9----29.95- 57.7 60.6----
2024-04-23 02:48 amSSW 8.9 11.1----29.95-- 60.8----
2024-04-23 02:42 amSSW 8.9 9.9----29.95- 57.7 60.8----
2024-04-23 02:36 am S 8.9 9.9----29.95- 57.6 60.8----
2024-04-23 02:30 am S 8.0 11.1----29.95- 57.9 60.6----
2024-04-23 02:24 am S 8.9 9.9----29.95- 57.7 60.8----
2024-04-23 02:18 am S 6.0 8.0----29.95- 57.7 60.8----
2024-04-23 02:12 amSSW 8.0 8.9----29.95- 57.7 60.6----
2024-04-23 02:06 amSSW 8.0 8.9----29.95- 57.6 60.8----
2024-04-23 02:00 amSSW 7.0 8.0----29.95-0.01 57.6 60.8----
2024-04-23 01:54 amSSW 8.0 8.0----29.95- 57.4 60.8----
2024-04-23 01:48 amSSW 6.0 7.0----29.95- 57.4 60.8----
2024-04-23 01:42 amSSW 6.0 7.0----29.95- 57.2 60.8----
2024-04-23 01:36 am S 5.1 6.0----29.95- 56.8 60.8----
2024-04-23 01:30 am S 4.1 5.1----29.95- 56.8 60.8----
2024-04-23 01:24 am S 2.9 5.1----29.95- 56.8 60.6----
2024-04-23 01:18 am S 2.9 5.1----29.96-- 60.6----
2024-04-23 01:12 am S 5.1 6.0----29.95- 56.7 60.4----
2024-04-23 01:06 am S 5.1 7.0----29.96- 56.5 60.4----
2024-04-23 01:00 am S 6.0 7.0----29.96+0.00 56.5 60.6----
2024-04-23 12:54 am S 6.0 8.0----29.96- 56.7 60.4----
2024-04-23 12:48 amSSW 7.0 8.0----29.96- 56.5 60.6----
2024-04-23 12:42 amSSW 7.0 8.0----29.96- 56.7 60.4----
2024-04-23 12:36 am S 6.0 8.0----29.96- 56.7 60.3----
2024-04-23 12:30 am S 6.0 7.0----29.96- 56.7 59.9----
2024-04-23 12:24 amSSW 7.0 8.0----29.96- 56.5 59.5----
2024-04-23 12:18 am S 8.0 8.9----29.96- 56.7 59.2----
2024-04-23 12:12 amSSW 8.0 8.9----29.96- 56.7 58.8----
2024-04-23 12:06 amSSW 7.0 8.9----29.96- 56.8 58.5----
2024-04-23 12:00 amSSW 8.0 9.9----29.96+0.03 56.8 59.0----
2024-04-22 11:54 pm SW 8.9 9.9----29.96- 56.8 58.5----
2024-04-22 11:48 pmSSW 6.0 8.0----29.96- 57.0 59.4----
2024-04-22 11:42 pmSSW 7.0 8.0----29.96- 57.2 59.4----
2024-04-22 11:36 pmSSW 6.0 7.0----29.96- 57.6 59.7----
2024-04-22 11:30 pmSSW 6.0 8.0----29.96- 57.4 58.8----
2024-04-22 11:24 pmSSW 6.0 7.0----29.96- 57.6 59.2----
2024-04-22 11:18 pm SW 5.1 8.0----29.96- 57.9 59.2----
2024-04-22 11:12 pm SW 4.1 6.0----29.96- 57.9 58.5----
2024-04-22 11:06 pmSSW 5.1 6.0----29.96- 57.7 59.2----
2024-04-22 11:00 pmSSW 5.1 6.0----29.96+0.05 57.9 59.7----
2024-04-22 10:54 pm SW 6.0 7.0----29.95- 57.9 60.6----
2024-04-22 10:48 pm SW 8.0 11.1----29.95-- 60.8----
2024-04-22 10:42 pmSSW 9.9 12.0----29.96- 58.3 60.8----
2024-04-22 10:36 pmSSW 8.9 9.9----29.95- 58.5 61.0----
2024-04-22 10:30 pm S 8.9 9.9----29.95- 58.6 61.0----
2024-04-22 10:24 pm S 7.0 8.9----29.95- 58.8 61.0----
2024-04-22 10:18 pm S 8.9 11.1----29.95-------
2024-04-22 10:12 pmSSW 8.9 11.1----29.95- 58.6 61.0----
2024-04-22 10:06 pmSSW 8.0 11.1----29.95- 58.6 61.0----
2024-04-22 10:00 pmSSW 8.9 12.0----29.95+0.05 58.8 61.0----
2024-04-22 09:54 pmSSW 6.0 9.9----29.95- 58.8 61.0----
2024-04-22 09:48 pmSSW 6.0 8.9----29.95- 58.8 61.0----
2024-04-22 09:42 pmSSW 8.0 9.9----29.95- 58.6 61.0----
2024-04-22 09:36 pmSSW 6.0 8.0----29.95- 58.8 61.2----
2024-04-22 09:30 pmSSW 8.0 9.9----29.94- 58.6 61.2----
2024-04-22 09:24 pm SW 7.0 9.9----29.94- 58.6 61.2----
2024-04-22 09:18 pmSSW 7.0 9.9----29.94- 58.6 61.2----
2024-04-22 09:12 pmSSW 7.0 9.9----29.93- 58.6 61.2----
2024-04-22 09:06 pmSSW 7.0 9.9----29.93- 58.8 61.2----
2024-04-22 09:00 pmSSW 7.0 8.9----29.93+0.02 58.8 61.2----
2024-04-22 08:54 pmSSW 7.0 8.0----29.93- 58.8 61.2----
2024-04-22 08:48 pm SW 6.0 8.0----29.93- 59.0 61.2----
2024-04-22 08:42 pm SW 6.0 8.0----29.92- 58.8 61.2----
2024-04-22 08:36 pm SW 7.0 8.0----29.92- 58.6 61.2----
2024-04-22 08:30 pmSSW 7.0 9.9----29.92- 58.8 61.2----
2024-04-22 08:24 pm SW 6.0 8.9----29.92- 58.8 61.2----
2024-04-22 08:18 pmSSW 8.0 8.9----29.91- 58.8 61.3----
2024-04-22 08:12 pmSSW 6.0 8.0----29.91- 58.8 61.3----
2024-04-22 08:06 pm SW 4.1 6.0----29.91- 59.0 61.3----
2024-04-22 08:00 pmSSW 5.1 7.0----29.91+0.00 59.0 61.3----
2024-04-22 07:54 pm SW 6.0 6.0----29.91- 59.0 61.3----
2024-04-22 07:48 pmSSW 5.1 7.0----29.91- 59.0 61.5----
2024-04-22 07:42 pm SW 5.1 8.0----29.91- 59.0 61.5----
2024-04-22 07:36 pm SW 5.1 7.0----29.91- 58.8 61.5----
2024-04-22 07:30 pm SW 5.1 7.0----29.91- 59.0 61.5----
2024-04-22 07:24 pm SW 5.1 7.0----29.91- 59.0 61.5----
2024-04-22 07:18 pm SW 6.0 7.0----29.91- 59.0 61.5----
2024-04-22 07:12 pm SW 5.1 7.0----29.91- 58.8 61.5----
2024-04-22 07:06 pm SW 5.1 7.0----29.91- 59.0 61.5----
2024-04-22 07:00 pm SW 5.1 7.0----29.91+0.00 59.2 61.5----
2024-04-22 06:54 pm SW 6.0 7.0----29.91- 58.8 61.7----
2024-04-22 06:48 pm SW 6.0 7.0----29.91-- 61.7----
2024-04-22 06:42 pm SW 5.1 7.0----29.91- 59.0 61.7----
2024-04-22 06:36 pm SW 6.0 8.9----29.91- 58.8 61.9----
2024-04-22 06:30 pm SW 6.0 8.9----29.91- 59.0 61.9----
2024-04-22 06:24 pm SW 7.0 8.0----29.91- 59.0 61.9----
2024-04-22 06:18 pm SW 4.1 6.0----29.91-- 61.9----
2024-04-22 06:12 pmWSW 6.0 7.0----29.91-- 62.1----
2024-04-22 06:06 pm SW 5.1 7.0----29.91-- 62.2----
2024-04-22 06:00 pmWSW 7.0 8.0----29.91+0.00 58.8 62.4----
2024-04-22 05:54 pm SW 5.1 7.0----29.91- 59.0 62.4----
2024-04-22 05:48 pm SW 6.0 7.0----29.91-- 62.4----
2024-04-22 05:42 pm SW 6.0 8.0----29.91-- 62.4----
2024-04-22 05:36 pm SW 5.1 8.0----29.91-- 62.4----
2024-04-22 05:30 pmWSW 7.0 8.0----29.91- 58.8 62.4----
2024-04-22 05:24 pm SW 6.0 8.0----29.91- 58.8 62.4----
2024-04-22 05:18 pm--------- 58.8 62.4----
2024-04-22 05:12 pm--------- 58.6 62.4----
2024-04-22 05:06 pm--------- 58.8 62.4----
2024-04-22 05:00 pmWSW 7.0 8.9----29.91-0.01 58.8 62.4----
2024-04-22 04:54 pmWSW 8.0 8.9----29.91- 59.0 62.4----
2024-04-22 04:48 pm SW 7.0 8.9----29.91- 59.2 62.4----
2024-04-22 04:42 pm SW 6.0 7.0----29.90- 59.0 62.4----
2024-04-22 04:36 pm SW 6.0 8.0----29.90- 59.0 62.4----
2024-04-22 04:30 pm SW 7.0 8.9----29.90- 58.8 62.4----
2024-04-22 04:24 pm SW 8.0 9.9----29.90- 58.8 62.4----
2024-04-22 04:18 pm SW 8.0 9.9----29.90-- 62.4----
2024-04-22 04:12 pm SW 8.0 8.9----29.90- 59.0 62.4----
2024-04-22 04:06 pmWSW 8.0 9.9----29.90- 58.8 62.4----
2024-04-22 04:00 pm SW 8.0 9.9----29.90-0.03 59.0 62.4----
2024-04-22 03:54 pm SW 8.9 11.1----29.90- 58.8 62.4----
2024-04-22 03:48 pm SW 8.9 11.1----29.90-- 62.4----
2024-04-22 03:42 pm SW 8.9 12.0----29.90- 59.0 62.4----
2024-04-22 03:36 pm SW 8.0 9.9----29.91- 59.0 62.4----
2024-04-22 03:30 pm SW 8.9 9.9----29.91- 58.8 62.4----
2024-04-22 03:24 pm SW 8.0 8.9----29.91- 58.8 62.4----
2024-04-22 03:18 pm SW 7.0 8.0----29.91- 58.6 62.4----
2024-04-22 03:12 pmWSW 6.0 8.0----29.91- 58.5 62.4----
2024-04-22 03:06 pmWSW 6.0 8.0----29.91- 58.3 62.4----
2024-04-22 03:00 pmWSW 6.0 7.0----29.91-0.03 58.3 62.4----
2024-04-22 02:54 pmWSW 6.0 7.0----29.91- 58.1 62.2----
2024-04-22 02:48 pmWSW 5.1 6.0----29.91- 58.3 62.2----
2024-04-22 02:42 pmWSW 5.1 6.0----29.91- 58.3 62.1----
2024-04-22 02:36 pmWSW 5.1 7.0----29.91- 58.3 62.1----
2024-04-22 02:30 pmWSW 5.1 7.0----29.91- 58.1 62.1----
2024-04-22 02:24 pmWSW 6.0 7.0----29.91- 58.1 62.2----
2024-04-22 02:18 pmWSW 5.1 7.0----29.91- 58.1 62.2----
2024-04-22 02:12 pmWSW 5.1 6.0----29.92- 57.9 62.2----
2024-04-22 02:06 pm SW 4.1 5.1----29.92- 58.1 62.2----
2024-04-22 02:00 pmWSW 5.1 6.0----29.92-0.01 57.9 62.2----
2024-04-22 01:54 pmWSW 4.1 5.1----29.92- 58.1 62.2----
2024-04-22 01:48 pmWSW 4.1 5.1----29.92-------
2024-04-22 01:42 pmWSW 4.1 5.1----29.92- 58.1 61.9----
2024-04-22 01:36 pmWSW 2.9 5.1----29.92- 57.9 61.9----
2024-04-22 01:30 pmWSW 5.1 6.0----29.93- 57.7 61.7----
2024-04-22 01:24 pmWSW 5.1 6.0----29.93- 57.7 61.7----
2024-04-22 01:18 pmWSW 5.1 5.1----29.93-- 61.5----
2024-04-22 01:12 pmWSW 5.1 6.0----29.93- 57.6 61.5----
2024-04-22 01:06 pmWSW 4.1 5.1----29.93- 57.6 61.3----
2024-04-22 01:00 pmWSW 5.1 6.0----29.93+0.01 57.4 61.0----
2024-04-22 12:54 pmWSW 5.1 6.0----29.93- 57.4 60.6----